Change the Weather History Date:

Sunday, April 13, 2014

  Actual Average Record
Temperature  
Mean Temperature 66 °F -  
Max Temperature 73 °F 77 °F 89 °F (2009)
Min Temperature 60 °F 51 °F 50 °F (1997)
Cooling Degree Days 2    
Growing Degree Days 16 (Base 50)    
Moisture  
Dew Point 56 °F    
Average Humidity 73    
Maximum Humidity 94    
Minimum Humidity 47    
Precipitation  
Precipitation 0.00 in - - ()
Sea Level Pressure  
Sea Level Pressure 30.28 in    
Wind  
Wind Speed 5 mph ()    
Max Wind Speed 12 mph    
Max Gust Speed -    
Visibility 6.2 miles    
Events Rain    
Averages and records for this station are not official NWS values.
T = Trace of Precipitation, MM = Missing Value Source: Averaged Metar Reports

Daily Weather History Graph

Daily Weather History Graph

Search for Another Location

Airport or City:

Trip Planner

Search our weather history database for the weather conditions in past years. The results will help you decide how hot, cold, wet, or windy it might be!

Date:

Astronomy

Apr. 13, 2014 Rise Set
Actual Time 6:29 AM CAT 6:03 PM CAT
Civil Twilight 6:06 AM CAT 6:26 PM CAT
Nautical Twilight 5:40 AM CAT 6:53 PM CAT
Astronomical Twilight 5:13 AM CAT 7:19 PM CAT
Moon 4:52 PM CAT (4/13) 4:37 AM CAT (4/13)
Length of Visible Light 12h 19m
Length of Day
11h 33m
Waxing Gibbous, 96% of the Moon is Illuminated
Apr 13
Waxing Gibbous
Apr 15
Full
Apr 22
Last Quarter
Apr 29
New
May 7
First Quarter

Hourly Weather History & Observations

Time (CAT) Temp. Dew Point Humidity Pressure Visibility Wind Dir Wind Speed Gust Speed Precip Events Conditions
12:00 AM 62.6 °F 57.2 °F 82% 30.33 in - ESE 3.5 mph - N/A   Clear
1:00 AM 64.4 °F 57.2 °F 77% 30.30 in - ESE 3.5 mph - N/A   Clear
2:00 AM 62.6 °F 57.2 °F 82% 30.30 in - SE 5.8 mph - N/A   Clear
3:00 AM 62.6 °F 57.2 °F 82% 30.30 in - SSE 2.3 mph - N/A   Clear
4:00 AM 62.6 °F 55.4 °F 77% 30.27 in - SE 5.8 mph - N/A   Clear
5:00 AM 62.6 °F 55.4 °F 77% 30.30 in - NE 4.6 mph - N/A   Clear
6:00 AM 60.8 °F 55.4 °F 82% 30.30 in - ENE 4.6 mph - N/A   Clear
7:00 AM 60.8 °F 55.4 °F 82% 30.30 in - East 3.5 mph - N/A   Clear
8:00 AM 62.6 °F 55.4 °F 77% 30.33 in - East 6.9 mph - N/A   Clear
9:00 AM 66.2 °F 55.4 °F 68% 30.33 in - ENE 11.5 mph - N/A   Clear
10:00 AM 68.0 °F 55.4 °F 64% 30.33 in 6.2 mi NE 9.2 mph - N/A   Mostly Cloudy
11:00 AM 68.0 °F 53.6 °F 60% 30.33 in 6.2 mi ENE 9.2 mph - N/A   Mostly Cloudy
12:00 PM 69.8 °F 55.4 °F 60% 30.30 in 6.2 mi ENE 5.8 mph - N/A   Mostly Cloudy
1:00 PM 71.6 °F 53.6 °F 53% 30.27 in 6.2 mi NNE 6.9 mph - N/A   Scattered Clouds
2:00 PM 73.4 °F 53.6 °F 50% 30.27 in 6.2 mi ESE 4.6 mph - N/A   Scattered Clouds
3:00 PM 73.4 °F 51.8 °F 47% 30.24 in 6.2 mi East 5.8 mph - N/A   Scattered Clouds
4:00 PM 73.4 °F 51.8 °F 47% 30.24 in 6.2 mi East 6.9 mph - N/A   Mostly Cloudy
5:00 PM 71.6 °F 51.8 °F 50% 30.21 in 6.2 mi NE 5.8 mph - N/A   Mostly Cloudy
6:00 PM 68.0 °F 57.2 °F 68% 29.95 in 6.2 mi NNE 5.8 mph - N/A Rain Light Rain
7:00 PM 64.4 °F 60.8 °F 88% 30.27 in 6.2 mi WNW 4.6 mph - N/A Rain Light Rain
8:00 PM 62.6 °F 60.8 °F 94% 30.30 in 6.2 mi SW 3.5 mph - N/A Rain Light Rain
9:00 PM 62.6 °F 60.8 °F 94% 30.30 in 6.2 mi SSE 2.3 mph - N/A Rain Light Rain
10:00 PM 62.6 °F 60.8 °F 94% 30.30 in 6.2 mi ESE 4.6 mph - N/A Rain Light Rain
11:00 PM 62.6 °F 60.8 °F 94% 30.30 in 5.6 mi SSE 3.5 mph - N/A Rain Rain